TimeCDT,TemperatureF,Dew PointF,Humidity,Sea Level PressureIn,VisibilityMPH,Wind Direction,Wind SpeedMPH,Gust SpeedMPH,PrecipitationIn,Events,Conditions,WindDirDegrees,DateUTC
12:54 AM,64.0,62.1,93,29.89,10.0,South,6.9,-,N/A,,Clear,170,2013-05-28 05:54:00
1:54 AM,64.9,62.1,90,29.86,10.0,South,11.5,-,N/A,,Clear,180,2013-05-28 06:54:00
2:54 AM,66.0,62.1,87,29.83,10.0,South,15.0,24.2,N/A,,Clear,190,2013-05-28 07:54:00
3:54 AM,66.0,62.1,87,29.82,10.0,South,13.8,-,N/A,,Clear,190,2013-05-28 08:54:00
4:54 AM,66.9,62.1,84,29.85,9.0,South,13.8,-,N/A,,Clear,190,2013-05-28 09:54:00
5:54 AM,66.9,62.1,84,29.88,10.0,SSW,13.8,-,N/A,,Mostly Cloudy,200,2013-05-28 10:54:00
6:54 AM,68.0,62.1,81,29.86,10.0,SSW,11.5,-,N/A,,Scattered Clouds,200,2013-05-28 11:54:00
7:54 AM,68.0,63.0,84,29.87,10.0,South,13.8,-,0.00,,Clear,190,2013-05-28 12:54:00
8:54 AM,70.0,64.9,84,29.88,10.0,SSW,11.5,-,N/A,,Mostly Cloudy,200,2013-05-28 13:54:00
9:22 AM,69.8,64.4,83,29.88,10.0,SSW,10.4,-,0.00,Thunderstorm,Mostly Cloudy,200,2013-05-28 14:22:00
9:54 AM,70.0,66.0,87,29.88,10.0,SSW,15.0,-,0.01,Thunderstorm,Mostly Cloudy,210,2013-05-28 14:54:00
10:54 AM,72.0,66.9,84,29.85,10.0,SSW,16.1,-,N/A,,Partly Cloudy,200,2013-05-28 15:54:00
11:54 AM,73.0,66.9,81,29.86,10.0,SSW,16.1,21.9,N/A,,Clear,200,2013-05-28 16:54:00
12:54 PM,73.9,66.9,79,29.83,10.0,SSW,15.0,-,N/A,,Clear,200,2013-05-28 17:54:00
1:54 PM,73.9,66.9,79,29.83,10.0,SSW,15.0,24.2,N/A,,Clear,210,2013-05-28 18:54:00
2:54 PM,75.9,69.1,79,29.82,10.0,SW,16.1,24.2,N/A,,Clear,220,2013-05-28 19:54:00
3:54 PM,80.1,71.1,74,29.83,10.0,SW,17.3,23.0,N/A,,Clear,220,2013-05-28 20:54:00
4:54 PM,82.0,70.0,67,29.83,10.0,SSW,17.3,26.5,N/A,,Clear,210,2013-05-28 21:54:00
5:54 PM,81.0,68.0,65,29.81,10.0,SSW,19.6,28.8,N/A,,Clear,200,2013-05-28 22:54:00
6:54 PM,80.1,68.0,67,29.80,10.0,SSW,17.3,-,N/A,,Clear,200,2013-05-28 23:54:00
7:54 PM,78.1,66.9,68,29.80,10.0,SSW,15.0,24.2,N/A,,Clear,200,2013-05-29 00:54:00
8:54 PM,75.9,64.9,69,29.83,10.0,SW,12.7,-,N/A,,Clear,220,2013-05-29 01:54:00
9:54 PM,75.0,64.9,71,29.85,10.0,North,-9999.0,-,N/A,,Clear,0,2013-05-29 02:54:00
10:54 PM,73.9,66.0,76,29.90,10.0,SW,8.1,-,N/A,,Mostly Cloudy,220,2013-05-29 03:54:00
11:54 PM,73.9,64.9,73,29.90,10.0,SSW,9.2,-,N/A,,Overcast,210,2013-05-29 04:54:00